Flag for Finland Weather past 2 weeks in Espoo, Finland

Now
34 °F

Partly sunny.


Feels Like: 24 °F
Forecast: 30 / 36 °F
Wind: 15 mph from Southeast

Location: Helsinki-Vantaa

Current Time: Jan 30, 2015 at 10:28:56 AM

Latest Report: Jan 30, 2015 at 9:50 AM


Visibility: N/A

Pressure: 29.18 "Hg

Humidity: 81%

Dew point: 28 °F

Location of EspooLocation

Historic Weather in Espoo — Graph

°F

Espoo temperature yesterday

Maximum temperature yesterday: 34 °F (at 12:20 AM)
Minimum temperature yesterday: 32 °F (at 6:20 AM)
Average temperature yesterday: 33 °F

Past Weeks' High & Low Weather Summary

 TemperatureHumidityPressure
High39 °F (Jan 16, 2:50 PM)100% (Jan 16, 6:50 AM)30.42 "Hg (Jan 16, 6:50 AM)
Low14 °F (Jan 21, 9:20 PM)64% (Jan 27, 10:20 AM)29.09 "Hg (Jan 29, 12:20 PM)
Average30 °F86%29.85 "Hg
* Reported Jan 15 9:20 AM — Jan 30 9:20 AM, Espoo, Weather by CustomWeather, © 2014

Note: Actual official high and low records may vary slightly from our data, if they occured in-between our weather recording intervals... More about our weather records

Advertising

Espoo weather history for previous 24 hours

 ConditionsComfort  
Time TempWeatherWind HumidityBarometerVisibility
9:20 AM
Jan 30
34 °FPartly sunny.12 mph81%29.18 "HgN/A
8:50 AM34 °FPartly sunny.13 mph81%29.18 "HgN/A
8:20 AM32 °FPassing clouds.14 mph87%29.18 "HgN/A
7:50 AM32 °FPassing clouds.13 mph87%29.18 "HgN/A
7:20 AM32 °FPassing clouds.12 mph87%29.18 "HgN/A
6:50 AM34 °FPartly cloudy.15 mph81%29.18 "HgN/A
6:20 AM34 °FPartly cloudy.14 mph81%29.18 "HgN/A
5:20 AM34 °FPartly cloudy.12 mph81%29.15 "HgN/A
4:50 AM34 °FPartly cloudy.13 mph87%29.15 "HgN/A
4:20 AM34 °FPassing clouds.13 mph87%29.15 "HgN/A
3:50 AM34 °FPassing clouds.13 mph87%29.15 "HgN/A
3:20 AM34 °FPartly cloudy.9 mph87%29.15 "HgN/A
2:50 AM34 °FPartly cloudy.12 mph87%29.15 "HgN/A
2:20 AM34 °FPassing clouds.12 mph87%29.15 "HgN/A
1:50 AM34 °FLight rain. Passing clouds.12 mph87%29.15 "HgN/A
1:20 AM34 °FLight rain. Passing clouds.14 mph87%29.15 "HgN/A
12:50 AM34 °FLight rain. Passing clouds.14 mph87%29.12 "HgN/A
12:20 AM34 °FPassing clouds.14 mph87%29.12 "HgN/A
11:50 PM
Jan 29
34 °FPassing clouds.12 mph87%29.12 "HgN/A
11:20 PM34 °FLight snow. Passing clouds.12 mph93%29.12 "HgN/A
10:50 PM34 °FPassing clouds.13 mph87%29.12 "HgN/A
10:20 PM34 °FPassing clouds.14 mph87%29.12 "HgN/A
9:50 PM34 °FPassing clouds.14 mph87%29.12 "HgN/A
9:20 PM34 °FPassing clouds.13 mph87%29.12 "HgN/A
8:50 PM34 °FPassing clouds.15 mph87%29.09 "HgN/A
8:20 PM34 °FPassing clouds.14 mph87%29.09 "HgN/A
7:50 PM34 °FPassing clouds.15 mph87%29.09 "HgN/A
7:20 PM34 °FPassing clouds.14 mph87%29.09 "HgN/A
6:50 PM34 °FPassing clouds.15 mph81%29.09 "HgN/A
6:20 PM34 °FLight snow. Passing clouds.15 mph81%29.09 "Hg5 mi
5:50 PM34 °FPassing clouds.13 mph81%29.09 "HgN/A
5:20 PM32 °FLight snow. Passing clouds.16 mph87%29.09 "Hg4 mi
4:50 PM32 °FLight snow. Passing clouds.15 mph87%29.09 "Hg4 mi
4:20 PM32 °FLight snow. Partly sunny.16 mph87%29.09 "Hg4 mi
3:50 PM32 °FLight snow. Broken clouds.17 mph87%29.09 "Hg2 mi
3:20 PM32 °FLight snow. Partly sunny.16 mph87%29.09 "Hg3 mi
2:50 PM32 °FLight snow. Partly sunny.15 mph87%29.09 "Hg2 mi
2:20 PM32 °FLight snow. Partly sunny.17 mph87%29.09 "Hg4 mi
1:50 PM32 °FLight snow. Broken clouds.15 mph87%29.09 "Hg2 mi
1:20 PM32 °FLight snow. Partly sunny.16 mph80%29.09 "Hg3 mi
12:50 PM32 °FLight snow. Partly sunny.18 mph80%29.09 "HgN/A
12:20 PM32 °FLight snow. Partly sunny.18 mph80%29.09 "HgN/A
11:50 AM32 °FPartly sunny.18 mph80%29.12 "HgN/A
11:20 AM32 °FPartly sunny.20 mph80%29.12 "HgN/A
10:50 AM32 °FPartly sunny.18 mph80%29.12 "HgN/A
10:20 AM32 °FPartly sunny.20 mph80%29.12 "HgN/A
Weather by CustomWeather, © 2014

See weather overviewHow to use our weather pages